TimeCST,TemperatureF,Dew PointF,Humidity,Sea Level PressureIn,VisibilityMPH,Wind Direction,Wind SpeedMPH,Gust SpeedMPH,PrecipitationIn,Events,Conditions,WindDirDegrees,DateUTC
12:00 AM,64.4,62.6,94,30.30,6.2,NNW,6.9,-,N/A,,Scattered Clouds,340,2013-08-13 06:00:00
1:00 AM,62.6,62.6,100,30.27,6.2,NNE,9.2,-,N/A,,Overcast,20,2013-08-13 07:00:00
2:00 AM,62.6,60.8,94,30.27,6.2,North,6.9,-,N/A,,Mostly Cloudy,360,2013-08-13 08:00:00
2:43 AM,-9999,-9999,N/A,-9999,6.2,NNE,11.5,-,N/A,,Light Drizzle,20,2013-08-13 08:43:00
3:00 AM,62.6,60.8,94,30.24,6.2,NNE,11.5,-,N/A,,Light Drizzle,20,2013-08-13 09:00:00
3:23 AM,-9999,-9999,N/A,-9999,3.1,North,11.5,-,N/A,,Drizzle,360,2013-08-13 09:23:00
4:00 AM,62.6,60.8,94,30.24,6.2,North,13.8,-,N/A,,Light Drizzle,360,2013-08-13 10:00:00
5:00 AM,60.8,60.8,100,30.21,6.2,North,9.2,-,N/A,,Overcast,360,2013-08-13 11:00:00
6:00 AM,62,60,93,29.91,25,North,9.2,,,,Partly Cloudy,10,2013-08-13 12:00:00
6:00 AM,60.8,60.8,100,30.21,6.2,North,9.2,-,N/A,,Mostly Cloudy,10,2013-08-13 12:00:00
7:00 AM,62.6,60.8,94,30.21,6.2,North,6.9,-,N/A,,Mostly Cloudy,360,2013-08-13 13:00:00
8:00 AM,64.4,60.8,88,30.24,6.2,North,11.5,-,N/A,,Mostly Cloudy,360,2013-08-13 14:00:00
9:00 AM,68.0,60.8,78,30.27,6.2,North,13.8,-,N/A,,Scattered Clouds,360,2013-08-13 15:00:00
10:00 AM,68.0,60.8,78,30.27,6.2,North,13.8,-,N/A,,Scattered Clouds,360,2013-08-13 16:00:00
11:00 AM,69.8,60.8,73,30.27,6.2,North,13.8,-,N/A,,Scattered Clouds,360,2013-08-13 17:00:00
12:00 PM,70,58,58,29.93,25,North,13.8,,,,Overcast,0,2013-08-13 18:00:00
12:00 PM,69.8,59.0,68,30.27,6.2,North,13.8,-,N/A,,Mostly Cloudy,360,2013-08-13 18:00:00
12:30 PM,-9999,-9999,N/A,-9999,6.2,North,11.5,-,N/A,,Light Drizzle,360,2013-08-13 18:30:00
1:00 PM,68.0,60.8,78,30.24,6.2,North,13.8,-,N/A,,Mostly Cloudy,360,2013-08-13 19:00:00
2:00 PM,71.6,59.0,64,30.21,6.2,North,11.5,-,N/A,,Mostly Cloudy,360,2013-08-13 20:00:00
3:00 PM,71.6,59.0,64,30.18,6.2,NNE,16.1,-,N/A,,Scattered Clouds,20,2013-08-13 21:00:00
4:00 PM,69.8,60.8,73,30.18,6.2,NNE,16.1,-,N/A,,Mostly Cloudy,20,2013-08-13 22:00:00
5:00 PM,69.8,59.0,68,30.18,6.2,NNE,11.5,-,N/A,,Mostly Cloudy,20,2013-08-13 23:00:00
6:00 PM,64,61,88,29.93,4,NNE,13.8,,,Rain,Rain,20,2013-08-14 00:00:00
6:00 PM,64.4,60.8,88,30.21,-9999.0,North,-9999.0,-,N/A,Rain,Rain,0,2013-08-14 00:00:00
7:00 PM,64.4,59.0,83,30.21,6.2,North,11.5,-,N/A,,Light Drizzle,360,2013-08-14 01:00:00
7:14 PM,-9999,-9999,N/A,-9999,6.2,North,13.8,-,N/A,,Mostly Cloudy,360,2013-08-14 01:14:00
7:26 PM,-9999,-9999,N/A,-9999,6.2,North,11.5,-,N/A,Rain,Rain,360,2013-08-14 01:26:00
8:00 PM,64.4,60.8,88,30.24,6.2,North,11.5,-,N/A,,Light Drizzle,350,2013-08-14 02:00:00
8:35 PM,-9999,-9999,N/A,-9999,6.2,North,13.8,-,N/A,,Mostly Cloudy,360,2013-08-14 02:35:00
9:00 PM,62.6,60.8,94,30.24,6.2,North,11.5,-,N/A,,Light Drizzle,360,2013-08-14 03:00:00
10:00 PM,62.6,59.0,88,30.27,6.2,North,16.1,-,N/A,,Light Drizzle,350,2013-08-14 04:00:00
10:12 PM,-9999,-9999,N/A,-9999,6.2,North,13.8,-,N/A,,Mostly Cloudy,360,2013-08-14 04:12:00
11:00 PM,60.8,59.0,94,30.27,6.2,North,16.1,-,N/A,,Mostly Cloudy,10,2013-08-14 05:00:00